OE4EXE Weather Reports


time (UTC)temp
C
wind
direction
speed
KPH
gust
KPH
rain 1hr
cm
rain 24hr
cm
rain mn
cm
humidity
%
barometer
mb
20260507034803 14 129 3.2 9.7 0.00 0.00 0.00 73 1010.4
20260507034603 14 136 3.2 9.7 0.00 0.00 0.00 73 1010.5
20260507034404 14 133 4.8 9.7 0.00 0.00 0.00 73 1010.5
20260507034203 14 132 4.8 9.7 0.00 0.00 0.00 73 1010.5
20260507034003 14 127 4.8 9.7 0.00 0.00 0.00 73 1010.4
20260507033803 14 116 4.8 9.7 0.00 0.00 0.00 72 1010.4
20260507033603 14 101 4.8 8.0 0.00 0.00 0.00 72 1010.4
20260507033403 14 87 4.8 8.0 0.00 0.00 0.00 72 1010.2
20260507033203 14 88 4.8 8.0 0.00 0.00 0.00 73 1010.4
20260507032603 14 109 3.2 8.0 0.00 0.00 0.00 73 1010.3
20260507032003 14 115 3.2 6.4 0.00 0.00 0.00 73 1010.3
20260507031803 14 108 3.2 6.4 0.00 0.00 0.00 73 1010.2
20260507031603 14 95 3.2 6.4 0.00 0.00 0.00 73 1010.3
20260507031403 14 86 3.2 9.7 0.00 0.00 0.00 73 1010.2
20260507031203 14 90 3.2 9.7 0.00 0.00 0.00 73 1010.0
20260507031003 14 93 3.2 9.7 0.00 0.00 0.00 73 1010.1
20260507030603 14 104 3.2 9.7 0.00 0.00 0.00 73 1010.0
20260507030403 14 107 3.2 9.7 0.00 0.00 0.00 73 1010.2
20260507030203 14 105 3.2 11.3 0.00 0.00 0.00 73 1010.2
20260507030003 14 126 3.2 11.3 0.00 0.00 0.00 73 1010.3
20260507025803 14 112 4.8 11.3 0.00 0.00 0.00 73 1010.3
20260507025603 15 108 3.2 11.3 0.00 0.00 0.00 73 1010.3
20260507025403 15 118 3.2 11.3 0.00 0.00 0.00 72 1010.3
20260507025203 15 132 4.8 11.3 0.00 0.00 0.00 72 1010.4
20260507025003 15 112 4.8 11.3 0.00 0.00 0.00 72 1010.5
20260507024803 15 108 4.8 11.3 0.00 0.00 0.00 72 1010.2
20260507024603 15 101 4.8 11.3 0.00 0.00 0.00 71 1010.3
20260507024403 15 97 6.4 11.3 0.00 0.00 0.00 71 1010.1
20260507024203 15 86 4.8 9.7 0.00 0.00 0.00 71 1010.1
20260507024003 15 72 4.8 9.7 0.00 0.00 0.00 71 1010.2
20260507023803 15 66 3.2 9.7 0.00 0.00 0.00 71 1010.2
20260507023403 15 67 1.6 8.0 0.00 0.00 0.00 71 1010.2
20260507023203 15 63 3.2 8.0 0.00 0.00 0.00 70 1010.1
20260507023003 15 55 3.2 8.0 0.00 0.00 0.00 70 1010.0
20260507022803 15 44 3.2 8.0 0.00 0.00 0.00 70 1010.0
20260507022603 15 46 3.2 8.0 0.00 0.00 0.00 70 1010.1
20260507022403 15 45 3.2 8.0 0.00 0.00 0.00 69 1010.1
20260507022203 15 41 1.6 8.0 0.00 0.00 0.00 69 1010.0
20260507022003 15 39 1.6 4.8 0.00 0.00 0.00 69 1010.1
20260507021803 15 34 1.6 4.8 0.00 0.00 0.00 69 1009.9
20260507021603 15 23 1.6 4.8 0.00 0.00 0.00 69 1009.9
20260507021404 15 8 1.6 3.2 0.00 0.00 0.00 69 1009.9
20260507020803 15 332 1.6 6.4 0.00 0.00 0.00 69 1010.1
20260507020603 15 318 1.6 6.4 0.00 0.00 0.00 69 1010.0
20260507020203 15 310 1.6 6.4 0.00 0.00 0.00 68 1010.0
20260507020003 16 345 1.6 6.4 0.00 0.00 0.00 68 1010.0
20260507015603 15 61 0.0 3.2 0.00 0.00 0.00 69 1009.8
20260507015403 15 64 0.0 3.2 0.00 0.00 0.00 69 1009.8
20260507015203 15 315 0.0 6.4 0.00 0.00 0.00 69 1009.9
20260507015003 15 260 1.6 8.0 0.00 0.00 0.00 69 1009.8
20260507014803 15 270 3.2 8.0 0.00 0.00 0.00 69 1009.7
20260507014603 15 277 3.2 9.7 0.00 0.00 0.00 70 1010.0
20260507014403 15 284 4.8 9.7 0.00 0.00 0.00 70 1009.8
20260507014203 15 289 6.4 12.9 0.00 0.00 0.00 70 1009.8
20260507014003 15 297 8.0 12.9 0.00 0.00 0.00 70 1009.7
20260507013603 15 301 9.7 12.9 0.00 0.00 0.00 70 1009.8
20260507013203 15 299 9.7 12.9 0.00 0.00 0.00 69 1009.9
20260507013003 15 301 9.7 12.9 0.00 0.00 0.00 69 1009.7
20260507012803 15 300 8.0 14.5 0.00 0.00 0.00 69 1009.7
20260507012603 15 303 8.0 14.5 0.00 0.00 0.00 68 1009.7
20260507012403 15 307 8.0 14.5 0.00 0.00 0.00 68 1009.6
20260507012203 16 309 9.7 16.1 0.00 0.00 0.00 67 1009.7
20260507011803 16 280 8.0 16.1 0.00 0.00 0.00 66 1009.8
20260507011603 16 266 8.0 19.3 0.00 0.00 0.00 66 1009.6
20260507011403 16 258 8.0 19.3 0.00 0.00 0.00 66 1009.7
20260507011203 16 251 8.0 19.3 0.00 0.00 0.00 66 1009.6
20260507011003 16 252 8.0 19.3 0.00 0.00 0.00 66 1009.3
20260507010803 16 249 8.0 19.3 0.00 0.00 0.00 66 1009.5
20260507010603 16 247 8.0 19.3 0.00 0.00 0.00 66 1009.3
20260507010403 16 245 9.7 17.7 0.00 0.00 0.00 66 1009.5
20260507010203 16 236 9.7 17.7 0.00 0.00 0.00 66 1009.3
20260507010003 16 231 9.7 20.9 0.00 0.00 0.00 66 1009.3
20260507005803 16 232 9.7 20.9 0.00 0.00 0.00 66 1009.2
20260507005603 16 229 9.7 20.9 0.00 0.00 0.00 65 1009.3
20260507005403 16 230 9.7 20.9 0.00 0.00 0.00 65 1009.3
20260507004803 16 250 11.3 25.7 0.00 0.00 0.00 65 1009.2
20260507004403 16 245 12.9 25.7 0.00 0.00 0.00 65 1009.3
20260507004203 16 241 11.3 25.7 0.00 0.00 0.00 65 1009.2
20260507003803 16 230 12.9 22.5 0.00 0.00 0.00 65 1009.0
20260507003403 16 231 12.9 22.5 0.00 0.00 0.00 65 1009.3
20260507003203 16 224 12.9 22.5 0.00 0.00 0.00 65 1009.2
20260507003003 16 225 12.9 22.5 0.00 0.00 0.00 65 1009.1
20260507002803 16 228 11.3 22.5 0.00 0.00 0.00 66 1009.4
20260507002603 16 230 11.3 22.5 0.00 0.00 0.00 65 1009.3
20260507002403 16 232 11.3 22.5 0.00 0.00 0.00 65 1009.3
20260507002003 16 227 11.3 22.5 0.00 0.00 0.00 65 1009.1
20260507001803 16 233 11.3 22.5 0.00 0.00 0.00 65 1009.1
20260507001603 16 234 9.7 19.3 0.00 0.00 0.00 65 1009.3
20260507001403 16 236 9.7 19.3 0.00 0.00 0.00 66 1009.2
20260507001203 16 241 9.7 19.3 0.00 0.00 0.00 65 1009.3
20260507001003 16 245 11.3 19.3 0.00 0.00 0.00 65 1009.3
20260507000603 16 240 11.3 20.9 0.00 0.00 0.00 65 1009.3
20260507000405 16 236 12.9 20.9 0.00 0.00 0.00 65 1009.3
20260507000205 16 233 12.9 20.9 0.00 0.00 0.00 65 1009.3
20260507000003 16 236 11.3 20.9 0.00 0.00 0.00 65 1009.0
20260506235603 16 237 9.7 19.3 0.00 0.00 0.00 65 1009.2
20260506235003 16 246 9.7 19.3 0.00 0.00 0.00 65 1009.2
20260506234603 16 256 8.0 17.7 0.00 0.00 0.00 64 1009.3
20260506234403 16 253 8.0 17.7 0.00 0.00 0.00 64 1009.1
20260506234203 16 254 8.0 17.7 0.00 0.00 0.00 64 1009.3
20260506234003 16 252 8.0 17.7 0.00 0.00 0.00 64 1009.3
20260506233803 16 246 8.0 19.3 0.00 0.00 0.00 64 1009.2
20260506233603 16 247 9.7 20.9 0.00 0.00 0.00 64 1009.3
20260506233403 16 246 9.7 20.9 0.00 0.00 0.00 64 1009.2
20260506233203 16 246 9.7 20.9 0.00 0.00 0.00 64 1009.1
20260506233003 16 243 11.3 20.9 0.00 0.00 0.00 64 1009.2
20260506232603 16 245 11.3 20.9 0.00 0.00 0.00 64 1009.3
20260506232003 16 266 8.0 17.7 0.00 0.00 0.00 64 1009.2
20260506231803 16 271 8.0 17.7 0.00 0.00 0.00 64 1009.3
20260506231603 16 271 8.0 19.3 0.00 0.00 0.00 64 1009.4
20260506231403 16 264 8.0 19.3 0.00 0.00 0.00 64 1009.3
20260506231203 16 259 8.0 19.3 0.00 0.00 0.00 64 1009.1
20260506231003 16 249 9.7 19.3 0.00 0.00 0.00 64 1009.2
20260506230403 16 236 8.0 17.7 0.00 0.00 0.00 64 1009.2
20260506230203 16 234 8.0 17.7 0.00 0.00 0.00 65 1009.3
20260506230003 16 239 6.4 12.9 0.00 0.00 0.00 65 1009.3
20260506225803 16 249 4.8 8.0 0.00 0.00 0.00 65 1009.2
20260506225603 16 259 4.8 8.0 0.00 0.00 0.00 65 1009.3
20260506225403 16 266 3.2 8.0 0.00 0.00 0.00 65 1009.2
20260506225203 16 264 4.8 8.0 0.00 0.00 0.00 65 1009.1
20260506224803 16 267 4.8 11.3 0.00 0.00 0.00 65 1009.2
20260506224603 16 250 4.8 11.3 0.00 0.00 0.00 65 1009.1
20260506224403 16 243 4.8 11.3 0.00 0.00 0.00 64 1009.1
20260506224203 16 239 6.4 14.5 0.00 0.00 0.00 64 1009.1
20260506224003 16 239 6.4 14.5 0.00 0.00 0.00 64 1009.0
20260506223803 16 236 6.4 14.5 0.00 0.00 0.00 64 1008.9
20260506223603 16 235 8.0 17.7 0.00 0.00 0.00 64 1009.2
20260506223403 16 235 8.0 17.7 0.00 0.00 0.00 64 1009.0
20260506223203 17 237 8.0 17.7 0.00 0.00 0.00 64 1009.0
20260506223003 17 233 9.7 20.9 0.00 0.00 0.00 64 1008.8
20260506222603 17 228 12.9 22.5 0.00 0.00 0.00 63 1008.8
20260506222403 17 226 12.9 22.5 0.00 0.00 0.00 63 1008.8
20260506222203 17 220 12.9 22.5 0.00 0.00 0.00 63 1008.8
20260506222003 17 215 14.5 24.1 0.00 0.00 0.00 63 1008.6
20260506221803 17 216 14.5 24.1 0.00 0.00 0.00 63 1008.5
20260506221603 17 211 14.5 25.7 0.00 0.00 0.00 63 1008.5
20260506221403 17 209 16.1 30.6 0.00 0.00 0.00 63 1008.5
20260506221203 17 216 16.1 30.6 0.00 0.00 0.00 63 1008.5
20260506221003 17 220 14.5 30.6 0.00 0.00 0.00 63 1008.4
20260506220803 17 216 14.5 30.6 0.00 0.00 0.00 63 1008.4
20260506220603 17 226 14.5 30.6 0.00 0.00 0.00 62 1008.6
20260506220203 17 228 14.5 27.4 0.00 0.00 0.00 62 1008.5
20260506220003 17 231 16.1 27.4 0.00 0.00 0.00 62 1008.5
20260506215803 17 234 14.5 27.4 0.00 0.00 0.00 62 1008.4
20260506215603 17 232 14.5 25.7 0.00 0.00 0.00 62 1008.8
20260506215403 17 231 16.1 25.7 0.00 0.00 0.00 62 1008.4
20260506215003 17 217 16.1 25.7 0.00 0.00 0.00 62 1008.5
20260506214803 17 217 14.5 25.7 0.00 0.00 0.00 62 1008.4
20260506214603 17 218 14.5 27.4 0.00 0.00 0.00 62 1008.6
20260506214203 17 226 14.5 27.4 0.00 0.00 0.00 62 1008.5
20260506214003 17 229 14.5 27.4 0.00 0.00 0.00 61 1008.5
20260506213803 17 230 14.5 27.4 0.00 0.00 0.00 61 1008.6
20260506213603 17 228 14.5 30.6 0.00 0.00 0.00 61 1008.4
20260506213403 17 230 14.5 30.6 0.00 0.00 0.00 61 1008.3
20260506213203 17 231 12.9 30.6 0.00 0.00 0.00 61 1008.3
20260506213003 17 230 12.9 30.6 0.00 0.00 0.00 61 1008.4
20260506212803 17 225 12.9 30.6 0.00 0.00 0.00 61 1008.4
20260506212603 17 222 14.5 30.6 0.00 0.00 0.00 61 1008.5
20260506212403 17 217 14.5 27.4 0.00 0.00 0.00 61 1008.4
20260506212203 17 214 14.5 29.0 0.00 0.00 0.00 61 1008.3
20260506212003 17 209 14.5 29.0 0.00 0.00 0.00 61 1008.2
20260506211803 17 215 16.1 29.0 0.00 0.00 0.00 61 1008.3
20260506211603 18 216 16.1 30.6 0.00 0.00 0.00 61 1008.4
20260506211203 18 221 17.7 30.6 0.00 0.00 0.00 60 1008.2
20260506211003 18 227 16.1 30.6 0.00 0.00 0.00 60 1008.1
20260506210403 18 222 16.1 30.6 0.00 0.00 0.00 60 1008.2
20260506210203 18 221 16.1 30.6 0.00 0.00 0.00 60 1008.1
20260506210003 18 219 17.7 30.6 0.00 0.00 0.00 60 1008.2
20260506205803 18 222 16.1 30.6 0.00 0.00 0.00 60 1008.2
20260506205403 18 227 17.7 29.0 0.00 0.00 0.00 60 1008.1
20260506205203 18 223 17.7 29.0 0.00 0.00 0.00 60 1008.3
20260506205004 18 222 16.1 29.0 0.00 0.00 0.00 60 1008.3
20260506204603 18 223 16.1 33.8 0.00 0.00 0.00 60 1008.0
20260506204403 18 217 16.1 33.8 0.00 0.00 0.00 60 1008.0
20260506204003 18 218 17.7 33.8 0.00 0.00 0.00 60 1008.1
20260506203803 18 215 17.7 33.8 0.00 0.00 0.00 60 1008.2
20260506203603 18 220 19.3 33.8 0.00 0.00 0.00 59 1008.1
20260506203403 18 227 19.3 33.8 0.00 0.00 0.00 60 1008.2
20260506203203 18 230 19.3 33.8 0.00 0.00 0.00 60 1008.2
20260506202803 18 227 17.7 33.8 0.00 0.00 0.00 60 1008.3
20260506202603 18 225 16.1 33.8 0.00 0.00 0.00 60 1008.4
20260506202403 18 217 16.1 30.6 0.00 0.00 0.00 60 1008.5
20260506202003 18 222 14.5 27.4 0.00 0.00 0.00 60 1008.4
20260506201803 18 222 14.5 29.0 0.00 0.00 0.00 59 1008.2
20260506201403 18 222 16.1 29.0 0.00 0.00 0.00 59 1008.2
20260506201203 18 220 16.1 32.2 0.00 0.00 0.00 59 1008.3
20260506201003 18 219 17.7 32.2 0.00 0.00 0.00 59 1008.2
20260506200803 18 218 16.1 32.2 0.00 0.00 0.00 59 1008.3
20260506200603 18 223 14.5 32.2 0.00 0.00 0.00 59 1008.4
20260506200403 18 221 14.5 32.2 0.00 0.00 0.00 59 1008.6
20260506200203 18 221 14.5 32.2 0.00 0.00 0.00 59 1008.5
20260506200003 18 226 12.9 30.6 0.00 0.00 0.00 59 1008.3
20260506195603 18 228 16.1 30.6 0.00 0.00 0.00 58 1008.5
20260506195403 18 232 14.5 30.6 0.00 0.00 0.00 58 1008.3
20260506195203 18 235 14.5 30.6 0.00 0.00 0.00 58 1008.5
20260506195003 18 234 14.5 30.6 0.00 0.00 0.00 58 1008.4
20260506194803 18 233 14.5 27.4 0.00 0.00 0.00 58 1008.3
20260506194603 18 226 14.5 29.0 0.00 0.00 0.00 58 1008.5
20260506194403 18 222 16.1 29.0 0.00 0.00 0.00 58 1008.4
20260506194203 18 216 16.1 29.0 0.00 0.00 0.00 57 1008.5
20260506193603 18 214 16.1 29.0 0.00 0.00 0.00 57 1008.3
20260506193403 18 213 16.1 27.4 0.00 0.00 0.00 57 1008.4
20260506193203 18 216 14.5 27.4 0.00 0.00 0.00 57 1008.4
20260506192803 18 214 12.9 25.7 0.00 0.00 0.00 56 1008.3
20260506192403 19 220 9.7 24.1 0.00 0.00 0.00 56 1008.5
20260506192203 18 222 8.0 22.5 0.00 0.00 0.00 57 1008.3
20260506192003 18 228 8.0 19.3 0.00 0.00 0.00 57 1008.4
20260506191803 18 229 6.4 17.7 0.00 0.00 0.00 57 1008.1
20260506191603 19 229 8.0 17.7 0.00 0.00 0.00 56 1008.2
20260506191403 19 228 8.0 24.1 0.00 0.00 0.00 56 1008.0
20260506191203 19 227 9.7 24.1 0.00 0.00 0.00 55 1008.3
20260506190803 19 236 11.3 24.1 0.00 0.00 0.00 55 1007.8
20260506190603 19 230 11.3 24.1 0.00 0.00 0.00 55 1008.2
20260506190403 19 229 11.3 24.1 0.00 0.00 0.00 55 1008.1
20260506190203 19 229 11.3 22.5 0.00 0.00 0.00 55 1008.0
20260506190003 19 225 11.3 20.9 0.00 0.00 0.00 55 1008.0
20260506185803 19 220 11.3 20.9 0.00 0.00 0.00 54 1007.8
20260506185603 19 231 11.3 19.3 0.00 0.00 0.00 54 1007.7
20260506185403 19 244 11.3 24.1 0.00 0.00 0.00 54 1007.9
20260506185003 19 245 11.3 25.7 0.00 0.00 0.00 54 1007.6
20260506184803 20 242 12.9 25.7 0.00 0.00 0.00 54 1007.8
20260506184403 20 232 12.9 25.7 0.00 0.00 0.00 53 1007.8
20260506184003 20 236 12.9 25.7 0.00 0.00 0.00 53 1007.5
20260506183603 20 236 14.5 25.7 0.00 0.00 0.00 53 1007.3
20260506183403 20 232 12.9 29.0 0.00 0.00 0.00 53 1007.3
20260506183203 20 234 14.5 29.0 0.00 0.00 0.00 53 1007.3
20260506183003 20 232 14.5 29.0 0.00 0.00 0.00 53 1007.3
20260506182803 20 230 14.5 29.0 0.00 0.00 0.00 53 1007.2
20260506182603 20 233 12.9 29.0 0.00 0.00 0.00 53 1007.3
20260506182403 20 234 12.9 29.0 0.00 0.00 0.00 52 1007.3
20260506182203 20 234 14.5 27.4 0.00 0.00 0.00 52 1007.3
20260506181803 20 233 16.1 32.2 0.00 0.00 0.00 52 1007.3
20260506181603 20 238 17.7 33.8 0.00 0.00 0.00 51 1007.4
20260506181403 20 234 19.3 33.8 0.00 0.00 0.00 51 1007.4
20260506181203 20 228 20.9 33.8 0.00 0.00 0.00 51 1007.2
20260506181003 20 226 20.9 33.8 0.00 0.00 0.00 51 1007.3
20260506180603 20 219 20.9 33.8 0.00 0.00 0.00 51 1007.5
20260506180403 20 222 16.1 33.8 0.00 0.00 0.00 51 1007.3
20260506180203 20 221 16.1 33.8 0.00 0.00 0.00 51 1007.3
20260506175803 20 223 16.1 30.6 0.00 0.00 0.00 50 1007.4
20260506175603 20 224 17.7 33.8 0.00 0.00 0.00 50 1007.3
20260506175403 20 221 19.3 33.8 0.00 0.00 0.00 50 1007.5
20260506175003 21 223 17.7 33.8 0.00 0.00 0.00 50 1007.4
20260506174603 21 221 17.7 33.8 0.00 0.00 0.00 50 1007.3
20260506174403 21 226 17.7 35.4 0.00 0.00 0.00 50 1007.3
20260506174203 21 221 17.7 35.4 0.00 0.00 0.00 50 1007.3
20260506174003 21 218 17.7 35.4 0.00 0.00 0.00 50 1007.4
20260506173803 21 220 17.7 35.4 0.00 0.00 0.00 50 1007.2
20260506173603 21 222 16.1 35.4 0.00 0.00 0.00 50 1007.4
20260506173403 21 218 16.1 30.6 0.00 0.00 0.00 50 1007.4
20260506172803 21 220 14.5 30.6 0.00 0.00 0.00 49 1007.1
20260506172603 21 218 14.5 32.2 0.00 0.00 0.00 49 1007.1
20260506172403 21 217 16.1 32.2 0.00 0.00 0.00 49 1006.9
20260506171603 21 217 19.3 33.8 0.00 0.00 0.00 49 1007.1
20260506171403 21 222 19.3 33.8 0.00 0.00 0.00 49 1007.1
20260506171203 21 228 19.3 33.8 0.00 0.00 0.00 48 1007.1
20260506171003 21 222 19.3 33.8 0.00 0.00 0.00 48 1007.1
20260506170803 21 227 19.3 33.8 0.00 0.00 0.00 48 1007.1
20260506170603 21 226 19.3 33.8 0.00 0.00 0.00 48 1007.2
20260506170403 21 226 17.7 33.8 0.00 0.00 0.00 48 1007.3
20260506170003 21 229 16.1 33.8 0.00 0.00 0.00 48 1007.3
20260506165803 21 220 17.7 33.8 0.00 0.00 0.00 48 1006.9
20260506165603 21 219 19.3 33.8 0.00 0.00 0.00 48 1007.1
20260506165403 21 220 17.7 33.8 0.00 0.00 0.00 48 1007.2
20260506165203 21 222 17.7 33.8 0.00 0.00 0.00 47 1007.3
20260506165003 21 223 17.7 33.8 0.00 0.00 0.00 47 1007.3
20260506164803 21 224 16.1 37.0 0.00 0.00 0.00 47 1006.9
20260506164403 21 224 16.1 40.2 0.00 0.00 0.00 47 1007.1
20260506164003 21 219 20.9 40.2 0.00 0.00 0.00 47 1007.1
20260506163803 21 217 24.1 40.2 0.00 0.00 0.00 47 1007.1
20260506163603 21 213 24.1 40.2 0.00 0.00 0.00 47 1007.1
20260506163403 21 210 24.1 40.2 0.00 0.00 0.00 46 1006.9
20260506163203 21 210 22.5 38.6 0.00 0.00 0.00 46 1007.1
20260506163003 21 212 22.5 38.6 0.00 0.00 0.00 46 1007.3
20260506162803 21 214 22.5 38.6 0.00 0.00 0.00 46 1006.9
20260506162603 21 210 20.9 38.6 0.00 0.00 0.00 46 1007.1
20260506162403 21 211 19.3 38.6 0.00 0.00 0.00 46 1007.1
20260506162203 21 217 20.9 38.6 0.00 0.00 0.00 46 1006.9
20260506162003 22 221 20.9 38.6 0.00 0.00 0.00 45 1007.2
20260506161803 22 226 20.9 38.6 0.00 0.00 0.00 45 1007.2
20260506161603 22 233 19.3 38.6 0.00 0.00 0.00 45 1007.1
20260506161203 22 232 20.9 38.6 0.00 0.00 0.00 45 1007.1
20260506161003 22 224 19.3 37.0 0.00 0.00 0.00 45 1006.9
20260506160803 22 226 20.9 40.2 0.00 0.00 0.00 45 1007.1
20260506160603 22 225 19.3 40.2 0.00 0.00 0.00 45 1007.2
20260506160403 22 224 20.9 40.2 0.00 0.00 0.00 45 1006.8
20260506160203 22 224 19.3 40.2 0.00 0.00 0.00 45 1006.9
20260506160003 22 227 19.3 40.2 0.00 0.00 0.00 44 1006.8
20260506155803 22 225 19.3 40.2 0.00 0.00 0.00 44 1007.2
20260506155603 22 220 22.5 41.8 0.00 0.00 0.00 44 1007.1
20260506155403 22 219 22.5 41.8 0.00 0.00 0.00 44 1007.1
20260506155003 22 220 22.5 41.8 0.00 0.00 0.00 44 1007.2
20260506154603 22 221 22.5 41.8 0.00 0.00 0.00 44 1007.2
20260506154403 22 224 20.9 40.2 0.00 0.00 0.00 43 1007.3
20260506154203 22 227 22.5 40.2 0.00 0.00 0.00 43 1007.4
20260506154003 22 230 22.5 40.2 0.00 0.00 0.00 43 1007.4
20260506153803 22 231 24.1 40.2 0.00 0.00 0.00 43 1007.3
20260506153603 22 229 24.1 40.2 0.00 0.00 0.00 43 1007.3
20260506153403 22 226 24.1 41.8 0.00 0.00 0.00 43 1007.3
20260506153203 22 223 25.7 41.8 0.00 0.00 0.00 43 1007.2
20260506153003 22 223 24.1 45.1 0.00 0.00 0.00 43 1007.3
20260506152803 22 227 24.1 45.1 0.00 0.00 0.00 42 1007.1
20260506152603 22 234 22.5 45.1 0.00 0.00 0.00 42 1007.2
20260506152203 23 236 20.9 45.1 0.00 0.00 0.00 41 1007.2
20260506152003 23 232 20.9 45.1 0.00 0.00 0.00 41 1006.9
20260506151803 23 235 19.3 38.6 0.00 0.00 0.00 41 1007.1
20260506151603 23 234 20.9 38.6 0.00 0.00 0.00 41 1006.9
20260506151403 23 235 20.9 43.5 0.00 0.00 0.00 40 1006.9
20260506151203 23 238 22.5 46.7 0.00 0.00 0.00 40 1006.9
20260506150803 23 235 22.5 46.7 0.00 0.00 0.00 39 1006.9
20260506150603 23 233 22.5 46.7 0.00 0.00 0.00 40 1006.9
20260506150403 23 233 24.1 46.7 0.00 0.00 0.00 40 1007.2
20260506150203 23 230 22.5 46.7 0.00 0.00 0.00 40 1006.9
20260506150003 23 229 19.3 45.1 0.00 0.00 0.00 40 1007.3
20260506145803 23 228 20.9 45.1 0.00 0.00 0.00 40 1007.2
20260506145603 23 227 20.9 40.2 0.00 0.00 0.00 40 1007.2
20260506145203 23 230 19.3 40.2 0.00 0.00 0.00 40 1007.1
20260506145003 23 231 20.9 40.2 0.00 0.00 0.00 40 1007.2
20260506144803 23 227 20.9 40.2 0.00 0.00 0.00 40 1007.3
20260506144603 23 226 19.3 40.2 0.00 0.00 0.00 40 1007.1
20260506144403 23 227 19.3 41.8 0.00 0.00 0.00 40 1007.1
20260506144203 23 227 20.9 41.8 0.00 0.00 0.00 40 1007.3
20260506144003 23 228 20.9 41.8 0.00 0.00 0.00 40 1007.2
20260506143803 23 226 20.9 41.8 0.00 0.00 0.00 41 1007.4
20260506143603 23 226 20.9 41.8 0.00 0.00 0.00 41 1007.3
20260506143403 23 227 22.5 41.8 0.00 0.00 0.00 40 1007.1
20260506143203 23 222 20.9 37.0 0.00 0.00 0.00 40 1007.4
20260506143003 23 223 20.9 46.7 0.00 0.00 0.00 40 1007.3
20260506142803 23 229 20.9 46.7 0.00 0.00 0.00 41 1007.4
20260506142603 23 231 22.5 46.7 0.00 0.00 0.00 41 1007.3
20260506142403 23 224 22.5 46.7 0.00 0.00 0.00 40 1007.2
20260506142203 23 227 24.1 46.7 0.00 0.00 0.00 40 1007.4
20260506142003 23 230 24.1 46.7 0.00 0.00 0.00 40 1007.3
20260506141803 23 232 22.5 40.2 0.00 0.00 0.00 41 1007.3
20260506141603 23 232 24.1 43.5 0.00 0.00 0.00 40 1007.3
20260506141403 23 242 24.1 51.5 0.00 0.00 0.00 40 1007.4
20260506141203 24 248 24.1 51.5 0.00 0.00 0.00 40 1007.3
20260506141003 23 251 20.9 51.5 0.00 0.00 0.00 40 1007.5
20260506140803 23 247 20.9 51.5 0.00 0.00 0.00 40 1007.6
20260506140603 23 243 20.9 51.5 0.00 0.00 0.00 39 1007.2
20260506140403 23 238 24.1 51.5 0.00 0.00 0.00 39 1007.4
20260506140203 23 229 22.5 40.2 0.00 0.00 0.00 39 1007.5
20260506140003 23 220 24.1 45.1 0.00 0.00 0.00 39 1007.3
20260506135003 24 238 22.5 48.3 0.00 0.00 0.00 39 1007.4
20260506134803 24 239 22.5 56.3 0.00 0.00 0.00 39 1007.4
20260506134603 23 242 22.5 56.3 0.00 0.00 0.00 39 1007.5
20260506134403 23 242 24.1 56.3 0.00 0.00 0.00 39 1007.5
20260506134203 23 240 22.5 56.3 0.00 0.00 0.00 39 1007.6
20260506134003 23 237 22.5 56.3 0.00 0.00 0.00 38 1007.3
20260506133803 24 233 22.5 56.3 0.00 0.00 0.00 39 1007.4
20260506133603 23 233 22.5 46.7 0.00 0.00 0.00 40 1007.6
20260506133403 23 238 22.5 45.1 0.00 0.00 0.00 39 1007.6
20260506133203 24 235 20.9 45.1 0.00 0.00 0.00 38 1007.8
20260506133003 24 236 20.9 40.2 0.00 0.00 0.00 39 1007.8
20260506132803 23 239 20.9 37.0 0.00 0.00 0.00 38 1007.5
20260506132603 24 233 17.7 37.0 0.00 0.00 0.00 38 1007.7
20260506132403 24 229 19.3 38.6 0.00 0.00 0.00 39 1007.6
20260506132203 23 226 19.3 38.6 0.00 0.00 0.00 41 1007.6
20260506132003 23 226 20.9 38.6 0.00 0.00 0.00 41 1007.7
20260506131803 23 220 22.5 38.6 0.00 0.00 0.00 41 1007.7
20260506131603 23 219 24.1 45.1 0.00 0.00 0.00 41 1007.7
20260506131003 23 209 24.1 45.1 0.00 0.00 0.00 41 1007.9
20260506130803 23 213 24.1 45.1 0.00 0.00 0.00 41 1007.8
20260506130603 23 211 24.1 45.1 0.00 0.00 0.00 40 1007.5
20260506130403 23 219 22.5 40.2 0.00 0.00 0.00 39 1007.6
20260506130203 23 221 20.9 45.1 0.00 0.00 0.00 39 1007.5
20260506130003 24 224 22.5 45.1 0.00 0.00 0.00 38 1007.8
20260506125803 24 225 24.1 45.1 0.00 0.00 0.00 39 1007.6
20260506125603 23 232 25.7 45.1 0.00 0.00 0.00 39 1007.5
20260506125403 23 229 25.7 45.1 0.00 0.00 0.00 40 1007.4
20260506125203 23 234 25.7 45.1 0.00 0.00 0.00 39 1007.6
20260506124803 24 234 20.9 38.6 0.00 0.00 0.00 39 1007.5
20260506124403 24 229 19.3 38.6 0.00 0.00 0.00 39 1007.5
20260506124203 24 227 20.9 35.4 0.00 0.00 0.00 39 1007.7
20260506124003 24 224 19.3 35.4 0.00 0.00 0.00 39 1007.7
20260506123803 24 221 19.3 40.2 0.00 0.00 0.00 38 1007.5
20260506123603 24 217 20.9 40.2 0.00 0.00 0.00 39 1007.6
20260506123403 24 214 20.9 40.2 0.00 0.00 0.00 38 1007.6
20260506123203 24 215 19.3 40.2 0.00 0.00 0.00 39 1007.4
20260506123003 24 218 19.3 40.2 0.00 0.00 0.00 38 1007.4
20260506122803 24 219 19.3 40.2 0.00 0.00 0.00 38 1007.6
20260506122403 24 223 19.3 38.6 0.00 0.00 0.00 37 1007.5
20260506122203 24 222 19.3 33.8 0.00 0.00 0.00 38 1007.6
20260506122003 24 222 19.3 33.8 0.00 0.00 0.00 37 1007.4
20260506121803 24 223 17.7 37.0 0.00 0.00 0.00 37 1007.7
20260506121603 24 231 17.7 45.1 0.00 0.00 0.00 37 1007.6
20260506121403 24 233 19.3 45.1 0.00 0.00 0.00 37 1007.6
20260506121003 24 231 22.5 45.1 0.00 0.00 0.00 36 1007.8
20260506120803 24 226 22.5 45.1 0.00 0.00 0.00 35 1007.9
20260506120603 25 216 22.5 45.1 0.00 0.00 0.00 35 1007.6
20260506120403 25 209 22.5 43.5 0.00 0.00 0.00 36 1007.4
20260506120203 24 209 22.5 37.0 0.00 0.00 0.00 36 1007.7
20260506120003 24 204 20.9 37.0 0.00 0.00 0.00 36 1007.7
20260506115803 24 211 19.3 37.0 0.00 0.00 0.00 36 1007.6
20260506115603 25 216 20.9 37.0 0.00 0.00 0.00 36 1007.6
20260506115403 25 222 20.9 37.0 0.00 0.00 0.00 36 1007.8
20260506115203 25 223 19.3 33.8 0.00 0.00 0.00 36 1007.9
20260506115003 24 224 19.3 40.2 0.00 0.00 0.00 36 1007.9
20260506114603 24 218 19.3 40.2 0.00 0.00 0.00 37 1008.1
20260506114404 24 216 20.9 40.2 0.00 0.00 0.00 37 1008.0
20260506114203 24 214 19.3 40.2 0.00 0.00 0.00 36 1008.2
20260506114003 24 218 19.3 40.2 0.00 0.00 0.00 37 1008.0
20260506113803 23 218 19.3 37.0 0.00 0.00 0.00 37 1008.0
20260506113603 23 217 19.3 35.4 0.00 0.00 0.00 38 1008.0
20260506113403 24 217 19.3 35.4 0.00 0.00 0.00 37 1008.2
20260506113203 24 217 19.3 37.0 0.00 0.00 0.00 37 1008.4
20260506113003 24 213 19.3 37.0 0.00 0.00 0.00 38 1008.1
20260506112603 23 225 17.7 37.0 0.00 0.00 0.00 38 1008.3
20260506112403 23 223 17.7 37.0 0.00 0.00 0.00 38 1008.2
20260506112003 24 228 16.1 33.8 0.00 0.00 0.00 37 1008.5
20260506111803 24 220 17.7 33.8 0.00 0.00 0.00 38 1008.3
20260506111603 23 211 19.3 33.8 0.00 0.00 0.00 38 1008.4
20260506111203 23 218 17.7 32.2 0.00 0.00 0.00 39 1008.3
20260506111003 23 216 19.3 32.2 0.00 0.00 0.00 38 1008.5
20260506110803 23 221 19.3 32.2 0.00 0.00 0.00 40 1008.4
20260506110603 23 229 17.7 30.6 0.00 0.00 0.00 40 1008.6
20260506110403 23 232 17.7 30.6 0.00 0.00 0.00 40 1008.5
20260506110203 23 233 19.3 30.6 0.00 0.00 0.00 40 1008.5
20260506110003 23 240 17.7 32.2 0.00 0.00 0.00 39 1008.5
20260506105603 23 235 16.1 33.8 0.00 0.00 0.00 40 1008.6
20260506105403 23 231 16.1 33.8 0.00 0.00 0.00 40 1008.6
20260506104803 23 233 17.7 33.8 0.00 0.00 0.00 39 1008.6
20260506104603 23 235 16.1 33.8 0.00 0.00 0.00 38 1008.7
20260506104403 23 237 16.1 30.6 0.00 0.00 0.00 38 1008.6
20260506104203 23 232 16.1 30.6 0.00 0.00 0.00 38 1008.8
20260506104003 23 225 12.9 25.7 0.00 0.00 0.00 41 1008.8
20260506103803 23 225 12.9 27.4 0.00 0.00 0.00 40 1008.9
20260506103603 23 215 12.9 29.0 0.00 0.00 0.00 42 1008.8
20260506103403 23 213 12.9 29.0 0.00 0.00 0.00 43 1009.0
20260506103203 23 210 11.3 29.0 0.00 0.00 0.00 42 1008.8
20260506103003 22 207 11.3 29.0 0.00 0.00 0.00 43 1008.8
20260506102803 22 197 11.3 29.0 0.00 0.00 0.00 44 1008.8
20260506102603 23 195 11.3 29.0 0.00 0.00 0.00 42 1008.9
20260506102203 22 193 11.3 24.1 0.00 0.00 0.00 42 1008.9
20260506102003 22 198 11.3 29.0 0.00 0.00 0.00 42 1008.8
20260506101603 22 210 14.5 30.6 0.00 0.00 0.00 41 1009.3
20260506101403 22 209 14.5 30.6 0.00 0.00 0.00 43 1009.2
20260506101203 21 216 12.9 30.6 0.00 0.00 0.00 45 1009.1
20260506101003 22 214 12.9 30.6 0.00 0.00 0.00 44 1009.2
20260506100803 22 214 12.9 30.6 0.00 0.00 0.00 44 1009.1
20260506100603 22 214 11.3 29.0 0.00 0.00 0.00 43 1009.3
20260506100203 22 211 9.7 29.0 0.00 0.00 0.00 43 1009.3
20260506100003 22 207 9.7 29.0 0.00 0.00 0.00 44 1009.3
20260506095803 22 212 9.7 29.0 0.00 0.00 0.00 45 1009.3
20260506095603 22 209 11.3 32.2 0.00 0.00 0.00 45 1009.6
20260506095403 22 209 12.9 32.2 0.00 0.00 0.00 45 1009.5
20260506095203 21 210 14.5 32.2 0.00 0.00 0.00 47 1009.4
20260506095003 22 214 16.1 32.2 0.00 0.00 0.00 46 1009.6
20260506094603 21 213 16.1 32.2 0.00 0.00 0.00 46 1009.6
20260506094403 21 219 17.7 30.6 0.00 0.00 0.00 46 1009.6
20260506094203 22 215 17.7 30.6 0.00 0.00 0.00 46 1009.4
20260506094003 21 216 17.7 30.6 0.00 0.00 0.00 46 1009.6
20260506093403 21 223 16.1 27.4 0.00 0.00 0.00 46 1009.6
20260506093203 22 230 16.1 27.4 0.00 0.00 0.00 46 1009.6
20260506093003 21 233 14.5 33.8 0.00 0.00 0.00 48 1009.7
20260506092803 22 228 14.5 33.8 0.00 0.00 0.00 47 1009.6
20260506092603 21 230 12.9 33.8 0.00 0.00 0.00 48 1009.7
20260506092403 21 228 12.9 33.8 0.00 0.00 0.00 48 1009.6
20260506092003 22 221 12.9 33.8 0.00 0.00 0.00 46 1009.6
20260506091803 22 214 9.7 27.4 0.00 0.00 0.00 47 1009.7
20260506091603 21 210 9.7 27.4 0.00 0.00 0.00 47 1009.7
20260506091203 22 191 8.0 27.4 0.00 0.00 0.00 47 1009.8
20260506091003 21 174 8.0 22.5 0.00 0.00 0.00 46 1009.6
20260506090803 21 165 8.0 19.3 0.00 0.00 0.00 47 1009.8
20260506090603 21 159 8.0 20.9 0.00 0.00 0.00 48 1009.6
20260506090208 21 163 8.0 20.9 0.00 0.00 0.00 49 1009.8
20260506090022 21 178 8.0 20.9 0.00 0.00 0.00 48 1009.6
20260506085803 21 183 8.0 20.9 0.00 0.00 0.00 48 1009.9
20260506085603 21 192 8.0 20.9 0.00 0.00 0.00 47 1009.6
20260506085404 21 211 8.0 19.3 0.00 0.00 0.00 46 1009.8
20260506085208 21 207 9.7 19.3 0.00 0.00 0.00 47 1009.6
20260506085003 21 204 9.7 19.3 0.00 0.00 0.00 49 1009.6
20260506084603 21 224 8.0 17.7 0.00 0.00 0.00 48 1009.4
20260506084403 21 222 8.0 19.3 0.00 0.00 0.00 48 1009.6
20260506084003 21 220 6.4 19.3 0.00 0.00 0.00 47 1009.6
20260506083803 21 194 6.4 24.1 0.00 0.00 0.00 48 1009.5
20260506083603 20 171 6.4 24.1 0.00 0.00 0.00 50 1009.5
20260506083403 21 177 6.4 24.1 0.00 0.00 0.00 49 1009.6
20260506083203 20 189 6.4 24.1 0.00 0.00 0.00 50 1009.5
20260506083003 20 191 6.4 24.1 0.00 0.00 0.00 50 1009.5
20260506082803 21 206 8.0 24.1 0.00 0.00 0.00 49 1009.6
20260506082603 21 219 6.4 20.9 0.00 0.00 0.00 49 1009.5
20260506082403 21 189 6.4 19.3 0.00 0.00 0.00 49 1009.5
20260506082203 20 171 4.8 16.1 0.00 0.00 0.00 51 1009.7
20260506082003 20 158 6.4 16.1 0.00 0.00 0.00 50 1009.5
20260506081803 20 162 6.4 16.1 0.00 0.00 0.00 51 1009.6
20260506081603 20 168 6.4 16.1 0.00 0.00 0.00 51 1009.6
20260506081403 20 185 6.4 16.1 0.00 0.00 0.00 52 1009.6
20260506081003 20 158 6.4 16.1 0.00 0.00 0.00 53 1009.6
20260506080803 20 156 6.4 16.1 0.00 0.00 0.00 53 1009.7
20260506080603 20 154 6.4 16.1 0.00 0.00 0.00 53 1009.7
20260506080403 20 168 6.4 16.1 0.00 0.00 0.00 53 1009.5
20260506080203 20 186 6.4 16.1 0.00 0.00 0.00 53 1009.7
20260506073403 18 241 6.4 19.3 0.00 0.00 0.00 56 1009.6
20260506073203 18 240 8.0 19.3 0.00 0.00 0.00 55 1009.8
20260506073003 18 238 8.0 19.3 0.00 0.00 0.00 55 1009.6
20260506072603 19 246 6.4 16.1 0.00 0.00 0.00 56 1009.8
20260506072403 18 244 6.4 16.1 0.00 0.00 0.00 58 1009.8
20260506072203 18 249 6.4 16.1 0.00 0.00 0.00 57 1009.8
20260506072003 18 247 6.4 16.1 0.00 0.00 0.00 58 1009.7
20260506071803 18 250 4.8 12.9 0.00 0.00 0.00 56 1009.7
20260506071603 18 251 6.4 14.5 0.00 0.00 0.00 57 1009.8
20260506071403 18 254 6.4 14.5 0.00 0.00 0.00 58 1009.8
20260506071203 18 249 6.4 14.5 0.00 0.00 0.00 60 1009.8
20260506071003 17 250 6.4 14.5 0.00 0.00 0.00 59 1009.8
20260506070603 17 249 8.0 17.7 0.00 0.00 0.00 59 1009.9
20260506070403 17 246 6.4 17.7 0.00 0.00 0.00 61 1009.8
20260506070203 17 246 6.4 17.7 0.00 0.00 0.00 60 1009.7
20260506062403 17 255 4.8 11.3 0.00 0.00 0.00 63 1009.8
20260506062203 16 247 4.8 9.7 0.00 0.00 0.00 63 1010.0
20260506062003 16 253 4.8 9.7 0.00 0.00 0.00 64 1009.7
20260506061803 16 250 4.8 11.3 0.00 0.00 0.00 65 1009.9
20260506061603 16 239 4.8 11.3 0.00 0.00 0.00 64 1009.7
20260506061403 16 241 4.8 11.3 0.00 0.00 0.00 65 1009.6
20260506061203 16 246 4.8 11.3 0.00 0.00 0.00 66 1009.8
20260506061003 16 246 4.8 11.3 0.00 0.00 0.00 66 1009.7
20260506060803 16 253 4.8 11.3 0.00 0.00 0.00 65 1009.9
20260506060603 16 271 4.8 9.7 0.00 0.00 0.00 66 1009.8
20260506060203 16 275 4.8 11.3 0.00 0.00 0.00 67 1009.7
20260506051403 13 230 6.4 12.9 0.00 0.00 0.00 74 1009.7
20260506051203 13 230 6.4 12.9 0.00 0.00 0.00 75 1009.9
20260506051003 13 245 6.4 12.9 0.00 0.00 0.00 75 1009.9
20260506050803 13 249 6.4 12.9 0.00 0.00 0.00 75 1009.8
20260506050603 13 258 4.8 11.3 0.00 0.00 0.00 75 1009.7
20260506050403 13 250 4.8 12.9 0.00 0.00 0.00 75 1009.7
20260506050203 13 254 6.4 14.5 0.00 0.00 0.00 76 1009.6
20260506045003 13 250 6.4 14.5 0.00 0.00 0.00 77 1009.6
20260506044803 12 262 4.8 9.7 0.00 0.00 0.00 78 1009.7
20260506044603 12 264 4.8 11.3 0.00 0.00 0.00 78 1009.5
20260506044203 12 242 6.4 12.9 0.00 0.00 0.00 78 1009.6
20260506043803 12 226 8.0 14.5 0.00 0.00 0.00 78 1009.7
20260506043603 12 223 9.7 14.5 0.00 0.00 0.00 78 1009.5
20260506043403 12 223 8.0 16.1 0.00 0.00 0.00 78 1009.5
20260506043203 12 223 8.0 16.1 0.00 0.00 0.00 78 1009.7
20260506043003 12 225 8.0 16.1 0.00 0.00 0.00 78 1009.5
20260506042803 12 225 6.4 16.1 0.00 0.00 0.00 78 1009.5
20260506042403 12 223 4.8 16.1 0.00 0.00 0.00 78 1009.5
20260506042203 12 218 4.8 14.5 0.00 0.00 0.00 78 1009.3
20260506041803 12 216 6.4 14.5 0.00 0.00 0.00 78 1009.6
20260506041604 12 208 8.0 14.5 0.00 0.00 0.00 78 1009.5
20260506041403 12 206 8.0 14.5 0.00 0.00 0.00 78 1009.6
20260506041203 12 210 9.7 14.5 0.00 0.00 0.00 78 1009.3
20260506041003 12 210 8.0 14.5 0.00 0.00 0.00 78 1009.3
20260506040603 12 219 9.7 14.5 0.00 0.00 0.00 78 1009.2
20260506035803 12 226 9.7 16.1 0.00 0.00 0.00 78 1009.2
20260506035603 12 225 9.7 16.1 0.00 0.00 0.00 78 1009.3